Le nostre stazioni meteo in Italia

Pubblicità
Il mio iltempo24.it
Palermo/Punta Raisi, Italia (16405): Temperatura & dewpoint: 15.04.2019 09:00:00 - 21.04.2019 09:00:00 (CEST)Palermo/Punta Raisi, Italia (16405): velocità del vento: 15.04.2019 09:00:00 - 21.04.2019 09:00:00 (CEST)Palermo/Punta Raisi, Italia (16405): direzione del vento: 15.04.2019 09:00:00 - 21.04.2019 09:00:00 (CEST)Palermo/Punta Raisi, Italia (16405): reduced air pressure: 15.04.2019 09:00:00 - 21.04.2019 09:00:00 (CEST)Palermo/Punta Raisi, Italia (16405): visibility: 15.04.2019 09:00:00 - 21.04.2019 09:00:00 (CEST)Palermo/Punta Raisi, Italia (16405): precipitazioni: 15.04.2019 09:00:00 - 21.04.2019 09:00:00 (CEST)
Data & Tempo tt [°C] td [°C] ff [km/h] ff [kn] dd ppp [hPa] vv [km] rr [mm]
21.04.2019 09:00:00 15,0 9,0 8 4 S - 10 -
21.04.2019 08:00:00 14,8 10,2 5 3 SSE 1015,0 10 -
21.04.2019 07:00:00 15,0 8,0 11 6 ESE - 10 -
21.04.2019 06:00:00 15,0 8,0 8 4 NE - 10 -
21.04.2019 05:00:00 15,3 12,2 11 6 NNE 1016,3 10 0,0
21.04.2019 04:00:00 15,0 11,0 4 2 - - 10 -
21.04.2019 03:00:00 15,0 12,0 11 6 SSO - 10 -
21.04.2019 02:00:00 15,4 11,3 11 6 SSO 1018,3 10 -
21.04.2019 01:00:00 14,0 8,0 9 5 S - 10 -
21.04.2019 00:00:00 15,0 9,0 11 6 SSO - 10 -
20.04.2019 23:00:00 15,1 9,0 11 6 ONO 1018,3 10 0,0
20.04.2019 22:00:00 18,0 4,0 11 6 SE - 10 -
20.04.2019 21:00:00 19,0 4,0 18 10 E - 10 -
20.04.2019 20:00:00 18,3 5,1 28 15 ENE 1018,0 10 -
20.04.2019 19:00:00 18,0 7,0 34 18 ENE - 10 -
20.04.2019 18:00:00 18,0 8,0 29 16 E - 10 -
20.04.2019 17:00:00 18,5 8,3 35 19 ENE 1019,0 10 0,0
20.04.2019 16:00:00 18,0 12,0 37 20 ENE - 10 -
20.04.2019 15:00:00 18,0 9,0 29 16 ENE - 10 -
20.04.2019 14:00:00 19,5 6,3 29 16 ENE 1021,6 10 -
20.04.2019 13:00:00 19,0 8,0 22 12 ENE - 10 -
20.04.2019 12:00:00 17,0 10,0 22 12 ENE - 10 -
20.04.2019 11:00:00 15,8 11,2 5 3 O 1023,4 10 0,0
20.04.2019 10:00:00 15,0 11,0 9 5 OSO - 10 -
20.04.2019 09:00:00 15,0 10,0 11 6 SSO - 10 -
20.04.2019 08:00:00 14,7 10,2 8 4 NE 1022,9 10 -
20.04.2019 07:00:00 13,0 9,0 8 4 NE - 10 -
20.04.2019 06:00:00 12,0 9,0 4 2 - - 10 -
20.04.2019 05:00:00 13,1 9,3 2 1 - 1023,1 10 0,0
20.04.2019 04:00:00 13,0 9,0 8 4 S - 10 -
20.04.2019 03:00:00 13,0 9,0 2 1 - - 10 -
20.04.2019 02:00:00 12,9 9,2 5 3 S 1024,0 10 -
20.04.2019 01:00:00 14,0 11,0 4 2 S - 10 -
20.04.2019 00:00:00 14,0 12,0 8 4 SSE - 10 -
19.04.2019 23:00:00 14,6 12,4 8 4 OSO 1025,1 10 0,0
19.04.2019 22:00:00 15,0 13,0 11 6 OSO - 10 -
19.04.2019 21:00:00 16,0 13,0 8 4 OSO - 10 -
19.04.2019 20:00:00 15,8 12,7 16 9 SO 1024,1 10 -
19.04.2019 19:00:00 17,0 13,0 11 6 O - 10 -
19.04.2019 18:00:00 18,0 10,0 26 14 ENE - 10 -
19.04.2019 17:00:00 18,5 9,2 26 14 ENE 1023,8 10 0,0
19.04.2019 16:00:00 18,0 11,0 24 13 NE - 10 -
19.04.2019 15:00:00 18,0 14,0 26 14 ENE - 10 -
19.04.2019 14:00:00 18,0 12,7 28 15 ENE 1024,6 10 -
19.04.2019 13:00:00 17,0 12,0 16 9 NE - 10 -
19.04.2019 12:00:00 17,0 12,0 9 5 N - 10 -
19.04.2019 11:00:00 15,9 11,5 5 3 ONO 1025,0 10 0,0
19.04.2019 10:00:00 15,0 11,0 9 5 O - 10 -
19.04.2019 09:00:00 15,0 10,0 4 2 - - 10 -
19.04.2019 08:00:00 13,4 9,7 8 4 SSE 1023,5 10 -
19.04.2019 07:00:00 12,0 9,0 9 5 SSO - 10 -
19.04.2019 06:00:00 12,0 9,0 5 3 S - 10 -
19.04.2019 05:00:00 12,0 9,3 8 4 ENE 1022,3 10 0,0
19.04.2019 04:00:00 12,0 10,0 8 4 ESE - 10 -
19.04.2019 03:00:00 12,0 10,0 4 2 SSE - 10 -
19.04.2019 02:00:00 13,3 10,4 2 1 - 1022,7 10 -
19.04.2019 01:00:00 13,0 10,0 8 4 S - 10 -
19.04.2019 00:00:00 14,0 11,0 5 3 S - 10 -
18.04.2019 23:00:00 15,1 11,8 8 4 NNE 1022,0 10 0,0
18.04.2019 22:00:00 15,0 12,0 5 3 SSO - 10 -
18.04.2019 21:00:00 16,0 13,0 4 2 - - 10 -
18.04.2019 20:00:00 16,1 12,6 9 5 SO 1020,3 10 -
18.04.2019 19:00:00 17,0 12,0 8 4 O - 10 -
18.04.2019 18:00:00 18,0 10,0 15 8 E - 10 -
18.04.2019 17:00:00 17,3 10,8 22 12 ENE 1019,7 10 0,0
18.04.2019 16:00:00 18,0 11,0 28 15 ENE - 10 -
18.04.2019 15:00:00 18,0 11,0 29 16 ENE - 10 -
18.04.2019 14:00:00 18,2 10,9 28 15 ENE 1020,0 10 -
18.04.2019 13:00:00 18,0 9,0 26 14 ENE - 10 -
18.04.2019 12:00:00 16,0 10,0 9 5 O - 10 -
18.04.2019 11:00:00 15,2 10,3 8 4 O 1021,1 10 0,0
18.04.2019 10:00:00 15,0 9,0 5 3 O - 10 -
18.04.2019 09:00:00 14,0 9,0 8 4 OSO - 10 -
18.04.2019 08:00:00 12,9 10,3 11 6 S 1020,4 10 -
18.04.2019 07:00:00 12,0 8,0 11 6 ENE - 10 -
18.04.2019 06:00:00 12,0 8,0 2 1 - - 10 -
18.04.2019 05:00:00 10,8 8,3 8 4 S 1019,6 10 0,0
18.04.2019 04:00:00 10,0 8,0 8 4 S - 10 -
18.04.2019 03:00:00 12,0 10,0 5 3 E - 10 -
18.04.2019 02:00:00 12,1 9,9 4 2 - 1020,6 10 -
18.04.2019 01:00:00 12,0 10,0 8 4 S - 10 -
18.04.2019 00:00:00 15,0 12,0 8 4 ONO - 10 -
17.04.2019 23:00:00 13,9 11,5 13 7 SO 1020,3 10 0,0
17.04.2019 22:00:00 15,0 11,0 9 5 E - 10 -
17.04.2019 21:00:00 15,0 11,0 22 12 ENE - 10 -
17.04.2019 20:00:00 15,2 11,7 28 15 ENE 1019,0 10 -
17.04.2019 19:00:00 16,0 13,0 29 16 ENE - 10 -
17.04.2019 18:00:00 16,0 12,0 31 17 NE - 10 -
17.04.2019 17:00:00 16,8 11,9 29 16 NE 1018,7 10 0,0
17.04.2019 16:00:00 16,0 12,0 29 16 NE - 10 -
17.04.2019 15:00:00 17,0 13,0 24 13 NE - 10 -
17.04.2019 14:00:00 16,1 12,4 22 12 NNE 1019,9 10 -
17.04.2019 13:00:00 16,0 12,0 18 10 NE - 10 -
17.04.2019 12:00:00 15,0 12,0 11 6 N - 10 -
17.04.2019 11:00:00 15,0 12,3 5 3 NO 1020,8 10 0,0
17.04.2019 10:00:00 14,0 12,0 9 5 OSO - 10 -
17.04.2019 09:00:00 14,0 11,0 8 4 SO - 10 -
17.04.2019 08:00:00 13,7 11,6 9 5 O 1020,1 10 -
17.04.2019 07:00:00 13,0 11,0 5 3 E - 10 -
17.04.2019 06:00:00 13,0 11,0 5 3 - - 10 -
17.04.2019 05:00:00 13,5 11,6 4 2 - 1019,1 10 0,0
17.04.2019 04:00:00 14,0 12,0 11 6 SO - 10 -
17.04.2019 03:00:00 14,0 12,0 9 5 SO - 9 -
17.04.2019 02:00:00 14,3 12,8 2 1 - 1020,2 10 -
17.04.2019 01:00:00 14,0 12,0 4 2 ONO - 10 -
17.04.2019 00:00:00 14,0 12,0 2 1 - - 10 -
16.04.2019 23:00:00 14,0 12,0 8 4 E - 10 -
16.04.2019 22:00:00 15,0 13,0 8 4 ENE - 10 -
16.04.2019 21:00:00 15,0 13,0 9 5 NNE - 10 -
16.04.2019 20:00:00 14,9 12,7 13 7 NNE 1019,7 10 -
16.04.2019 19:00:00 15,0 12,0 16 9 NE - 10 -
16.04.2019 18:00:00 15,0 12,0 13 7 NNE - 10 -
16.04.2019 17:00:00 15,6 12,0 15 8 NE 1019,1 10 0,0
16.04.2019 16:00:00 16,0 11,0 11 6 NNE - 10 -
16.04.2019 15:00:00 16,0 11,0 8 4 N - 10 -
16.04.2019 14:00:00 15,3 11,1 13 7 NNE 1020,1 10 -
16.04.2019 13:00:00 15,0 11,0 5 3 N - 10 -
16.04.2019 12:00:00 15,0 11,0 8 4 NNO - 10 -
16.04.2019 11:00:00 14,6 11,4 9 5 O 1020,0 10 0,0
16.04.2019 10:00:00 15,0 10,0 13 7 SO - 10 -
16.04.2019 09:00:00 13,0 10,0 4 2 - - 10 -
16.04.2019 08:00:00 11,8 9,5 4 2 - 1019,4 10 -
16.04.2019 07:00:00 12,0 9,0 8 4 SE - 10 -
16.04.2019 06:00:00 10,0 9,0 11 6 E - 10 -
16.04.2019 05:00:00 10,8 8,7 9 5 S 1018,5 10 0,0
16.04.2019 04:00:00 11,0 9,0 9 5 S - 10 -
16.04.2019 03:00:00 - - - - - - - -
16.04.2019 02:00:00 11,8 9,5 9 5 SSE 1018,7 10 -
16.04.2019 01:00:00 12,0 9,0 4 2 S - 10 -
16.04.2019 00:00:00 13,0 10,0 5 3 E - 10 -
15.04.2019 23:00:00 14,1 10,4 13 7 NNE 1018,6 10 0,0
15.04.2019 22:00:00 14,0 10,0 16 9 NNE - 10 -
15.04.2019 21:00:00 14,0 10,0 18 10 N - 10 -
15.04.2019 20:00:00 14,3 9,8 21 11 NNE 1017,0 10 -
15.04.2019 19:00:00 15,0 9,0 22 12 NE - 10 -
15.04.2019 18:00:00 14,0 9,0 22 12 NNE - 10 -
15.04.2019 17:00:00 14,5 9,6 26 14 N 1015,4 10 0,0
15.04.2019 16:00:00 14,0 9,0 28 15 N - 10 -
15.04.2019 15:00:00 14,0 9,0 31 17 N - 10 -
15.04.2019 14:00:00 14,1 9,3 35 19 N 1014,1 10 -
15.04.2019 13:00:00 13,0 8,0 35 19 NNE - 10 -
15.04.2019 12:00:00 13,0 9,0 35 19 N - 10 -
15.04.2019 11:00:00 13,2 9,4 18 10 NO 1012,2 10 0,0
15.04.2019 10:00:00 12,0 8,0 24 13 NO - 9 -
15.04.2019 09:00:00 12,0 8,0 39 21 N - 8 -

tt = Temperatura
td = dewpoint
ff = velocità del vento
dd = direzione del vento
ppp = reduced air pressure
vv = visibility
rr = precipitazioni

Stazioni seguenti

WeatherPro
AMSI
MeteoEarth